Regional Weather Roundup
Issued by NWS

Home | Current Version | Previous Version | Text Only | Print | Product List | Glossary On
Versions: 1 2 3 4 5 6 7 8 9 10 11 12 13 14 15 16 17 18 19 20 21 22 23 24 25 26 27 28 29 30 31 32 33 34 35 36 37 38 39 40 41 42 43 44 45 46 47 48 49 50
662
ASUS46 KPQR 162310
RWROR

OREGON REGIONAL WEATHER ROUNDUP
NATIONAL WEATHER SERVICE PORTLAND OR
300 PM PST MON JAN 16 2017

NOTE: "FAIR" INDICATES FEW OR NO CLOUDS BELOW 12,000 FEET WITH
NO SIGNIFICANT WEATHER AND/OR OBSTRUCTIONS TO VISIBILITY.

ORZ001>013-170000-
NORTHWEST OREGON


CITY           SKY/WX    TMP DP  RH WIND       PRES   REMARKS
ASTORIA        MOSUNNY   48  28  46 E9        30.04F
NEWPORT        MOSUNNY   54  34  47 E8        30.08F
PORTLAND       PTSUNNY   28  17  63 SE15      30.17F WCI  16
VANCOUVER WA   PTSUNNY   30  17  58 S8        30.18R WCI  22
SCAPPOOSE      CLOUDY    30  19  63 S6        30.17R WCI  24
HILLSBORO      MOSUNNY   30  21  69 CALM      30.16S
AURORA         PTSUNNY   36  21  54 N7        30.17R WCI  30
MCMINNVILLE    MOSUNNY   33  22  63 SE3       30.16S
SALEM          PTSUNNY   38  22  52 NE6       30.14R WCI  33
CORVALLIS        N/A     39  25  56 E3        30.14S
EUGENE         PTSUNNY   39  29  67 E3        30.12F
$$

ORZ021-028-170000-
SOUTHWEST OREGON


CITY           SKY/WX    TMP DP  RH WIND       PRES   REMARKS
NORTH BEND     MOSUNNY   54  43  66 SW7       30.09S
BROOKINGS      MOSUNNY   55  39  54 CALM      30.09R
ROSEBURG       MOSUNNY   51  40  65 CALM      30.09F
SEXTON SUMMIT  MOSUNNY   48  17  29 S7        30.10S
MEDFORD        SUNNY     49  35  58 N3        30.13F
$$

ORZ014>016-041-170000-
COLUMBIA GORGE


CITY           SKY/WX    TMP DP  RH WIND       PRES   REMARKS
TROUTDALE      MOSUNNY   27  16  63 E30G41    30.17R WCI  11
THE DALLES     MOSUNNY   18  11  74 CALM      30.47S
$$

ORZ029>031-041-044-049-050-061>064-502-503-505>511-170000-
EASTERN OREGON


CITY           SKY/WX    TMP DP  RH WIND       PRES   REMARKS
REDMOND        MOSUNNY   22  11  62 CALM      30.16F
BEND           SUNNY     36  21  55 SE7       30.15F WCI  30
PRINEVILLE     SUNNY     34  21  60 SE8       30.16F WCI  27
KLAMATH FALLS  SUNNY     32  22  66 S3        30.19F
LAKEVIEW       SUNNY     30  19  64 NW3       30.22S
HERMISTON      MOSUNNY   14   7  73 E5        30.44F WCI   6
PENDLETON      MOSUNNY   10   4  76 SE9       30.34F WCI  -3
JOHN DAY       SUNNY     34  22  61 E5        30.20S WCI  30
MEACHAM        SUNNY     25  11  55 CALM      30.19R
LA GRANDE      SUNNY     14  12  92 N12       30.31R WCI   0
BAKER CITY     SUNNY      3  -1  83 W3        30.35R
BURNS          SUNNY     11   6  81 SE3       30.27S
ROME             N/A     23  14  68 N7        30.28S WCI  15
ONTARIO        CLOUDY     6   1  80 CALM      30.53F HAZE
$$




USA.gov is the U.S. government's official web portal to all federal, state and local government web resources and services.